Regional Weather Roundup
Issued by NWS

Home | Current Version | Previous Version | Graphics & Text | Print | Product List | Glossary Off
Versions: 1 2 3 4 5 6 7 8 9 10 11 12 13 14 15 16 17 18 19 20 21 22 23 24 25 26 27 28 29 30 31 32 33 34 35 36 37 38 39 40 41 42 43 44 45 46 47 48 49 50

539
ASUS43 KLSX 171807
RWRMO

WEATHER SUMMARY FOR MISSOURI
NATIONAL WEATHER SERVICE SPRINGFIELD MO
1200 PM CST FRI NOV 17 2017

NOTE: "FAIR" INDICATES FEW OR NO CLOUDS BELOW 12,000 FEET WITH NO
       SIGNIFICANT WEATHER AND/OR OBSTRUCTIONS TO VISIBILITY.
       CURRENT SKY AND/OR WEATHER CONDITIONS ARE NOT AVAILABLE FOR
       CHILLICOTHE AND FARMINGTON.

MOZ001>031-035>038-043-044-053-054-171900-
...NORTHERN AND WESTERN MISSOURI...

CITY           SKY/WX    TMP DP  RH WIND       PRES   REMARKS
KANSAS CTY INT CLOUDY    60  57  89 S15       29.61F FOG
6HR MIN TEMP:  55; 6HR MAX TEMP:  60; 6HR PCP: TRACE;

KANSAS C DTWN  CLOUDY    61  55  81 S12G18    29.62F
6HR MIN TEMP:  58; 6HR MAX TEMP:  61;

LEE`S SUMMIT   CLOUDY    57  57 100 S17G28    29.64F FOG
6HR MIN TEMP:  56; 6HR MAX TEMP:  57;

ST JOSEPH      LGT RAIN  58  56  93 S8        29.60F FOG
6HR MIN TEMP:  53; 6HR MAX TEMP:  58; 6HR PCP: TRACE;

CHILLICOTHE      N/A     56  53  90 SE5       29.68F
6HR MIN TEMP:  49; 6HR MAX TEMP:  56;

KIRKSVILLE     CLOUDY    52  47  83 S17       29.71F
6HR MIN TEMP:  41; 6HR MAX TEMP:  52;


$$
MOZ066>068-077>081-088>096-101>105-171900-
...SOUTHWEST MISSOURI...

CITY           SKY/WX    TMP DP  RH WIND       PRES   REMARKS
SPRINGFIELD    CLOUDY    60  54  80 S21G29    29.76F
6HR MIN TEMP:  51; 6HR MAX TEMP:  60;

JOPLIN         CLOUDY    66  61  84 S21G31    29.71F
6HR MIN TEMP:  60; 6HR MAX TEMP:  66;

BRANSON        CLOUDY    59  55  88 SE9       29.84F

$$
MOZ032>034-039>042-045>050-055>058-069>072-171900-
...CENTRAL MISSOURI...

CITY           SKY/WX    TMP DP  RH WIND       PRES   REMARKS
COLUMBIA       CLOUDY    59  50  72 S20       29.75F
6HR MIN TEMP:  44; 6HR MAX TEMP:  59;

JEFFERSON CITY CLOUDY    60  49  66 S13       29.77F
6HR MIN TEMP:  45; 6HR MAX TEMP:  60;

ROLLA          CLOUDY    57  48  72 S18G31    29.82F
6HR MIN TEMP:  46; 6HR MAX TEMP:  57; 6HR PCP: TRACE;

SEDALIA        CLOUDY    61  56  83 S20G30    29.70F
6HR MIN TEMP:  52; 6HR MAX TEMP:  61;

WHITEMAN AFB   DRIZZLE   58  55  89 S15G22    29.64F FOG
WARRENSBURG    CLOUDY    55  54  94 S15G21    29.68F FOG
OSAGE BEACH    CLOUDY    62  53  72 S13       29.77F

$$
MOZ051-052-059>065-171900-
...EAST CENTRAL MISSOURI...

CITY           SKY/WX    TMP DP  RH WIND       PRES   REMARKS
ST LOUIS INTL  CLOUDY    47  39  74 SE17G24   29.89F
6HR MIN TEMP:  34; 6HR MAX TEMP:  47; 6HR PCP: TRACE;

SPIRIT OF STL  CLOUDY    51  40  65 SE7       29.87F
6HR MIN TEMP:  36; 6HR MAX TEMP:  51;

ST CHARLES     CLOUDY    47  39  74 SE13      29.88F
6HR MIN TEMP:  35; 6HR MAX TEMP:  47;


$$
MOZ072>076-082>087-097>100-106>115-171900-
...SOUTH CENTRAL AND SOUTHEAST MISSOURI...

CITY           SKY/WX    TMP DP  RH WIND       PRES   REMARKS
CAPE GIRARDEAU CLOUDY    48  41  76 SE9       30.00F
6HR MIN TEMP:  31; 6HR MAX TEMP:  48;

FARMINGTON     CLOUDY    49  41  74 S14       29.93F
6HR MIN TEMP:  34; 6HR MAX TEMP:  49;

POPLAR BLUFF   CLOUDY    53  44  71 SE9       29.97F
6HR MIN TEMP:  38; 6HR MAX TEMP:  53;

WEST PLAINS    CLOUDY    59  51  75 S16G22    29.88F
6HR MIN TEMP:  45; 6HR MAX TEMP:  59;


$$



USA.gov is the U.S. government's official web portal to all federal, state and local government web resources and services.